www.pogodaiklimat.ru

Погода и климат >> Архив погоды >> Малайзия >> Лабуан


ПОГОДА в Лабуане

  • Прогноз погоды в Лабуане
  • Монитор погоды в Лабуане

АРХИВ ПОГОДЫ в Лабуане

Время (UTC), дата Ветер
(напр.,м/с)
 
Видим.   Явления Облачность Т
(С)
Тd
(С)
f
(%)
Тe
(С)
Тes
(С)
Комфортность P
(гПа)
Po
(гПа)
Тmin
(С)
Tmax
(С)
R
(мм)
R24
(мм)
S
(см)
18 14.03 СВ 2 20 км 9/1 400 м
[Cu Sc Ac lent Ci sp]
+26.7 +23.9 85 +37 +37 очень
душно
1011.9 1008.5
21 14.03 штиль 0 20 км 9/1 420 м
[Cu Sc Ac lent Ci sp]
+25.0 +23.8 93 +34 +34 очень
душно
1011.7 1008.3
00 15.03 СВ 2 15 км мгла 9/3 50 м
[Cu Sc Ac lent Ci sp]
+27.1 +24.5 86 +38 +40 очень
душно
1013.8 1010.4 +24.5
03 15.03 С 4 8000 м мгла 9/1 400 м
[Cu hum Ac lent Ci sp]
+30.0 +24.3 72 +42 +49 опасность
перегрева
1013.8 1010.4
06 15.03 СВ 7 15 км мгла 9/1 450 м
[Cu hum Ac lent Ci sp]
+31.0 +21.1 56 +39 +42 очень
душно
1011.3 1007.9
09 15.03 С 5 15 км мгла 9/1 450 м
[Cu hum Ac lent Ci sp]
+29.1 +22.0 66 +38 +38 очень
душно
1010.1 1006.7
12 15.03 С 4 12 км мгла 9/1 450 м
[Cu hum Ac lent Ci sp]
+27.1 +22.5 76 +36 +36 очень
душно
1011.5 1008.1 +31.5
15 15.03 С 2 12 км мгла 9/1 450 м
[Cu hum Ac lent Ci sp]
+26.8 +23.1 80 +36 +36 очень
душно
1013.3 1009.9
18 15.03 С 1 12 км мгла 9/1 450 м
[Cu Sc Ac lent Ci sp]
+26.3 +23.4 84 +36 +36 очень
душно
1011.9 1008.5
21 15.03 СЗ 1 12 км мгла 9/1 450 м
[Cu hum Ac lent Ci sp]
+25.4 +22.9 86 +34 +34 очень
душно
1011.2 1007.8
00 16.03 СВ 3 15 км мгла 9/3 50 м
[Cu Sc Ac lent Ci sp]
+26.9 +24.3 86 +38 +39 очень
душно
1013.8 1010.4 +24.1
03 16.03 СВ 3 15 км мгла 9/1 360 м
[Cu Sc Ac lent Ci sp]
+29.8 +23.6 69 +40 +48 очень
душно
1014.0 1010.6
06 16.03 С 4 15 км мгла 9/1 540 м
[Cu Sc Ac lent Ci sp]
+30.9 +20.4 54 +38 +44 очень
душно
1011.1 1007.7
09 16.03 С 4 20 км мгла 9/1 540 м
[Cu Sc Ac lent Ci sp]
+29.3 +22.4 66 +38 +39 очень
душно
1010.5 1007.1
12 16.03 С 3 15 км мгла 9/1 480 м
[Cu hum Ac lent Ci sp]
+27.0 +23.4 81 +37 +37 очень
душно
1012.3 1008.9 +31.5
15 16.03 С 1 15 км мгла 9 баллов +25.9 +23.7 88 +35 +35 очень
душно
1014.5 1011.1
18 16.03 С 3 15 км мгла 9/1 480 м
[Cu Sc Ac lent Ci sp]
+26.6 +23.7 84 +36 +36 очень
душно
1012.5 1009.1
21 16.03 С 2 15 км мгла 9/5 400 м
[Cu Sc Ac lent Ci sp]
+26.4 +23.8 86 +36 +36 очень
душно
1012.5 1009.1
00 17.03 С 4 15 км мгла 9/3 50 м
[Cu Sc Ac lent Ci sp]
+27.3 +23.2 78 +37 +38 очень
душно
1013.8 1010.4 +25.7
03 17.03 С 4 15 км мгла 9/1 400 м
[Cu Sc Ac lent Ci sp]
+30.0 +23.4 68 +41 +48 опасность
перегрева
1013.9 1010.5
06 17.03 С 4 15 км мгла 9/1 400 м
[Cu Sc Ac lent Ci sp]
+30.3 +22.2 62 +39 +45 очень
душно
1011.1 1007.7
09 17.03 С 3 15 км мгла 9/1 450 м
[Cu Sc Ac lent Ci sp]
+29.7 +22.1 64 +39 +40 очень
душно
1010.2 1006.8
12 17.03 С 2 15 км мгла 9/1 450 м
[Cu Sc Ac lent Ci sp]
+26.8 +23.3 81 +36 +36 очень
душно
1012.3 1008.9 +31.3
15 17.03 С 2 15 км мгла 9/3 360 м
[Cu Sc Ac lent Ci sp]
+26.6 +23.4 83 +36 +36 очень
душно
1013.8 1010.4
18 17.03 С 1 15 км мгла 9/3 360 м
[Cu Sc Ac lent Ci sp]
+26.2 +23.6 86 +36 +36 очень
душно
1012.0 1008.6
21 17.03 штиль 0 15 км мгла 9/3 400 м
[Cu Sc Ac lent Ci sp]
+24.1 +22.9 93 +32 +32 очень
душно
1010.9 1007.5
00 18.03 штиль 0 20 км мгла 9/1 50 м
[Cu Sc Ac lent Ci sp]
+26.8 +23.8 84 +37 +40 очень
душно
1012.6 1009.2 +23.6
03 18.03 ЮВ 2 20 км мгла 9/1 400 м
[Cu Sc Ac lent Ci sp]
+30.7 +21.7 59 +39 +49 очень
душно
1013.0 1009.6
06 18.03 З 3 20 км мгла 9/1 400 м
[Cu Sc Ac lent Ci sp]
+31.7 +24.3 65 +44 +52 опасность
перегрева
1009.8 1006.5
09 18.03 С 4 20 км мгла 9/1 400 м
[Cu Sc Ac lent Ci sp]
+29.3 +22.7 68 +39 +40 очень
душно
1008.9 1005.5
12 18.03 СВ 4 15 км мгла 9/1 400 м
[Cu hum Ac lent Ci sp]
+27.6 +23.9 80 +38 +38 очень
душно
1010.9 1007.5 +32.8
15 18.03 СВ 3 15 км мгла 9/5 400 м
[Cu Sc Ac lent Ci sp]
+27.7 +24.6 83 +39 +39 очень
душно
1011.7 1008.4
18 18.03 штиль 0 15 км мгла 9/4 400 м
[Cu Sc Ac As Ci sp]
+27.2 +24.9 87 +39 +39 очень
душно
1009.9 1006.6
21 18.03 штиль 0 15 км мгла 9/3 400 м
[Cu Sc Ac lent Ci sp]
+25.8 +24.5 93 +36 +36 очень
душно
1010.0 1006.7
00 19.03 штиль 0 20 км мгла 9/1 50 м
[Cu Sc Ac und Ci sp]
+27.4 +25.2 88 +40 +42 очень
душно
1012.3 1009.0 +25.3
03 19.03 СЗ 2 15 км мгла 9/4 360 м
[Cu Sc Ac und Ci sp]
+29.0 +24.7 78 +41 +49 опасность
перегрева
1012.5 1009.2
06 19.03 СЗ 3 20 км мгла 9/4 360 м
[Cu Sc Ac lent Ci sp]
+30.8 +25.0 71 +44 +50 опасность
перегрева
1009.4 1006.1 3
09 19.03 С 4 20 км мгла 9/3 400 м
[Cu Sc Ac und Ci sp]
+29.8 +23.0 67 +40 +40 очень
душно
1008.4 1005.1
12 19.03 СВ 4 15 км мгла 9/1 450 м
[Cu Sc Ac lent Ci sp]
+27.7 +25.0 85 +40 +40 очень
душно
1010.5 1007.2 +31.5
15 19.03 СВ 3 12 км мгла 9/3 450 м
[Cu Sc Ac lent Cs]
+27.6 +24.3 82 +39 +39 очень
душно
1011.0 1007.7
18 19.03 штиль 0 12 км мгла 9/3 450 м
[Cu Sc Ac lent Cs]
+26.6 +24.7 89 +38 +38 очень
душно
1009.6 1006.3
21 19.03 штиль 0 15 км мгла 9/1 450 м
[Cu Sc Ac lent Ci sp]
+25.3 +24.3 94 +35 +35 очень
душно
1009.8 1006.4
00 20.03 ЮЗ 1 20 км мгла 9/4 50 м
[Cu Sc Ac lent Ci sp]
+27.5 +25.5 89 +40 +42 очень
душно
1011.5 1008.2 +25.3 3
03 20.03 З 1 1000 м ливневой дождь 10/5 300 м
[Cu Sc Ac und Ci sp]
+28.3 +26.0 87 +42 +48 опасность
перегрева
1012.0 1008.7
06 20.03 СВ 3 15 км мгла {дождь} 10/5 360 м
[Cu Sc Ac As Cs]
+29.6 +25.3 78 +43 +47 опасность
перегрева
1009.0 1005.7 8
09 20.03 С 5 20 км мгла 10/5 300 м
[Cu Sc Ac As Ci sp]
+28.2 +25.0 83 +41 +41 опасность
перегрева
1008.4 1005.1
12 20.03 СВ 4 15 км мгла 9/1 420 м
[Cu Sc Ac trans Ci sp]
+27.5 +24.4 83 +39 +39 очень
душно
1009.7 1006.4 +30.9
15 20.03 СВ 4 15 км мгла 9/1 420 м
[Cu Sc Ac trans Cs]
+27.4 +23.7 80 +37 +37 очень
душно
1011.0 1007.6
18 20.03 СВ 2 15 км мгла 9/1 420 м
[Cu Sc Ac trans Cs]
+27.1 +24.2 84 +38 +38 очень
душно
1009.3 1006.0
21 20.03 штиль 0 15 км мгла 9/1 420 м
[Cu Sc Ac trans Cs]
+26.4 +24.5 89 +37 +37 очень
душно
1008.7 1005.4
00 21.03 СВ 1 15 км мгла 9/4 420 м
[Cu Sc Ac As Cs]
+27.0 +24.4 86 +38 +40 очень
душно
1011.0 1007.6 +25.7 8
03 21.03 ЮЗ 3 15 км мгла 9/1 420 м
[Cu Sc Ac trans Ci sp]
+29.7 +24.7 75 +42 +51 опасность
перегрева
1011.3 1008.0
06 21.03 З 4 15 км мгла 9/1 420 м
[Cb cap Ac lent Ci sp]
+31.3 +25.0 69 +45 +51 опасность
перегрева
1008.6 1005.3
09 21.03 СЗ 3 30 км 9/1 420 м
[Cb cap Ac lent Cs]
+28.2 +25.0 83 +41 +42 опасность
перегрева
1007.8 1004.5
12 21.03 С 1 20 км 9/4 300 м
[Cu Sc Ac trans Cs]
+27.3 +25.0 87 +39 +39 очень
душно
1009.6 1006.3 +32.3
15 21.03 штиль 0 20 км 9/3 360 м
[Cu Sc Ac trans Cs]
+26.4 +24.9 91 +38 +38 очень
душно
1011.0 1007.7

 

Местоположение метеостанции Лабуан (Малайзия): широта 5.30 долгота 115.25 высота над уровнем моря 30 м.

В архиве по умолчанию представлена погода в Лабуане за последнюю неделю. Архивные данные за месяц целиком и за предыдущие месяцы, начиная с января 2011 года, Вы можете получить, выбрав интересующий диапазон дат из раскрывающегося списка и нажав кнопку "Ввод!".


*Определитесь, кто Вы:
робот инопланетянин человек

Внимание! Время в таблицах - всемирное. Для получения местного времени необходимо прибавить поправку, которая равна 8 ч.

Смотрите также архив погоды в соседних городах и на ближайших метеорологических станциях:

Погода в Бруней аэропорту (Бруней) (54 км)
Погода в Кота-Кинабалу (Малайзия) (113 км)
Погода в Мири (Малайзия) (177 км)
Погода в Лонгбаване (Индонезия) (181 км)
Погода в Тавау (Малайзия) (313 км)
Погода в Сандакане (Малайзия) (318 км)
Погода в Таракане (Индонезия) (337 км)
Погода в Бинталу (Малайзия) (339 км)
Погода в Танджунгселоре (Индонезия) (357 км)
Погода в Танджунгредепе (Индонезия) (430 км)

Пояснения к столбцам:

Ветер - указаны скорость ветра в м/с - средняя за 10 мин, порывы в срок и между сроками (в фигурных скобках) и направление, откуда дует ветер: С - северный, СВ - северо-восточный, В - восточный, ЮВ - юго-восточный, Ю - южный, ЮЗ - юго-западный, З - западный, СЗ - северо-западный.
Видимость - горизонтальная дальность видимости в метрах или километрах. При видимости от 1 до 10 км при отсутствии осадков обычно наблюдается дымка, при ухудшении видимости до 1 км и менее - туман. В сухую погоду видимость может ухудшаться дымом, пылью или мглою.
Явления - указаны атмосферные явления, наблюдавшиеся в срок или в последний час перед сроком; фигурными скобками обозначены явления, наблюдавшиеся между сроками (за 1-3 часа до срока); квадратными скобками обозначены град или гололедные отложения с указанием их диаметра в мм.
Облачность - указаны через наклонную черту общая и нижняя облачность в баллах и высота нижней границы облаков в метрах; квадратными скобками обозначены формы облаков: Ci - перистые, Cs - перисто-слоистые, Cc - перисто-кучевые, Ac - высококучевые, As - высокослоистые, Sc - слоисто-кучевые, Ns - слоисто-дождевые, Cu - кучевые, Cb - кучево-дождевые. Подробнее классификацию облаков см. в Атласе облаков (PDF).
T - Температура воздуха - температура, измеренная на высоте 2 м над землей.
Td - Температура точки росы - температура, при понижении до которой содержащийся в воздухе водяной пар достигнет насыщения.
f - Относительная влажность воздуха - влажноcть воздуха, измеренная на высоте 2 м над землей.
Te - Эффективная температура - температура, которую ощущает одетый по сезону человек в тени. Характеристика душности погоды. При расчете учитывается влияние влажности воздуха и скорости ветра на теплоощущения человека.
Tes - Эффективная температура на солнце - температура, которую ощущает человек, с поправкой на солнечный нагрев. Характеристика знойности погоды. Зависит от высоты солнца над горизонтом, облачности и скорости ветра. Ночью, в пасмурную погоду, а также при ветре 12 м/с и более поправка равна нулю.
P - Атмосферное давление - приведенное к уровню моря атмосферное давление.
Po - Атмосферное давление - измеренное на уровне метеостанции атмосферное давление.
Tmin - Минимальная температура - минимум температуры воздуха на высоте 2 м над землей.
Tmax - Максимальная температура - максимум температуры воздуха на высоте 2 м над землей.
R - Количество осадков - Количество выпавших осадков за период времени, мм. При наведении курсора мыши на число - период времени, за который выпало указанное количество осадков.
R24 - Количество осадков - Количество выпавших осадков за 24 часа, мм.
S - Снежный покров - Высота снежного покрова, см. При наведении курсора мыши на число - состояние снежного покрова и степень покрытия местности в баллах.